Year,Month,Day,Hour,Minute,Value (Times are PST for temperature in C)
2018,10,16,00,00,5.20
2018,10,16,00,01,5.20
2018,10,16,00,02,5.20
2018,10,16,00,03,5.20
2018,10,16,00,04,5.20
2018,10,16,00,05,5.20
2018,10,16,00,06,5.20
2018,10,16,00,07,5.20
2018,10,16,00,08,5.20
2018,10,16,00,09,5.20
2018,10,16,00,10,5.20
2018,10,16,00,11,5.20
2018,10,16,00,12,5.20
2018,10,16,00,13,5.20
2018,10,16,00,14,5.20
2018,10,16,00,15,5.20
2018,10,16,00,16,5.20
2018,10,16,00,17,5.20
2018,10,16,00,18,5.20
2018,10,16,00,19,5.10
2018,10,16,00,20,5.10
2018,10,16,00,21,5.10
2018,10,16,00,22,5.10
2018,10,16,00,23,5.10
2018,10,16,00,24,5.10
2018,10,16,00,25,5.10
2018,10,16,00,26,5.10
2018,10,16,00,27,5.10
2018,10,16,00,28,5.10
2018,10,16,00,29,5.10
2018,10,16,00,30,5.10
2018,10,16,00,31,5.10
2018,10,16,00,32,5.10
2018,10,16,00,33,5.10
2018,10,16,00,34,5.10
2018,10,16,00,35,5.10
2018,10,16,00,36,5.10
2018,10,16,00,37,5.10
2018,10,16,00,38,5.00
2018,10,16,00,39,5.00
2018,10,16,00,40,5.00
2018,10,16,00,41,5.00
2018,10,16,00,42,5.00
2018,10,16,00,43,4.90
2018,10,16,00,44,4.90
2018,10,16,00,45,4.90
2018,10,16,00,46,4.90
2018,10,16,00,47,4.90
2018,10,16,00,48,4.90
2018,10,16,00,49,4.90
2018,10,16,00,50,4.90
2018,10,16,00,51,4.90
2018,10,16,00,52,4.90
2018,10,16,00,53,4.90
2018,10,16,00,54,4.90
2018,10,16,00,55,4.80
2018,10,16,00,56,4.80
2018,10,16,00,57,4.80
2018,10,16,00,58,4.80
2018,10,16,00,59,4.80
2018,10,16,01,00,4.80
2018,10,16,01,01,4.80
2018,10,16,01,02,4.80
2018,10,16,01,03,4.80
2018,10,16,01,04,4.80
2018,10,16,01,05,4.80
2018,10,16,01,06,4.80
2018,10,16,01,07,4.80
2018,10,16,01,08,4.80
2018,10,16,01,09,4.80
2018,10,16,01,10,4.80
2018,10,16,01,11,4.80
2018,10,16,01,12,4.80
2018,10,16,01,13,4.80
2018,10,16,01,14,4.80
2018,10,16,01,15,4.80
2018,10,16,01,16,4.80
2018,10,16,01,17,4.80
2018,10,16,01,18,4.80
2018,10,16,01,19,4.80
2018,10,16,01,20,4.80
2018,10,16,01,21,4.80
2018,10,16,01,22,4.80
2018,10,16,01,23,4.80
2018,10,16,01,24,4.80
2018,10,16,01,25,4.80
2018,10,16,01,26,4.80
2018,10,16,01,27,4.80
2018,10,16,01,28,4.80
2018,10,16,01,29,4.80
2018,10,16,01,30,4.80
2018,10,16,01,31,4.80
2018,10,16,01,32,4.80
2018,10,16,01,33,4.80
2018,10,16,01,34,4.80
2018,10,16,01,35,4.80
2018,10,16,01,36,4.80
2018,10,16,01,37,4.70
2018,10,16,01,38,4.70
2018,10,16,01,39,4.70
2018,10,16,01,40,4.70
2018,10,16,01,41,4.70
2018,10,16,01,42,4.70
2018,10,16,01,43,4.60
2018,10,16,01,44,4.60
2018,10,16,01,45,4.60
2018,10,16,01,46,4.60
2018,10,16,01,47,4.60
2018,10,16,01,48,4.50
2018,10,16,01,49,4.50
2018,10,16,01,50,4.50
2018,10,16,01,51,4.50
2018,10,16,01,52,4.50
2018,10,16,01,53,4.40
2018,10,16,01,54,4.40
2018,10,16,01,55,4.40
2018,10,16,01,56,4.40
2018,10,16,01,57,4.40
2018,10,16,01,58,4.40
2018,10,16,01,59,4.40
2018,10,16,02,00,4.40
2018,10,16,02,01,4.40
2018,10,16,02,02,4.40
2018,10,16,02,03,4.40
2018,10,16,02,04,4.40
2018,10,16,02,05,4.40
2018,10,16,02,06,4.40
2018,10,16,02,07,4.40
2018,10,16,02,08,4.40
2018,10,16,02,09,4.40
2018,10,16,02,10,4.30
2018,10,16,02,11,4.30
2018,10,16,02,12,4.30
2018,10,16,02,13,4.30
2018,10,16,02,14,4.30
2018,10,16,02,15,4.30
2018,10,16,02,16,4.30
2018,10,16,02,17,4.30
2018,10,16,02,18,4.30
2018,10,16,02,19,4.30
2018,10,16,02,20,4.30
2018,10,16,02,21,4.30
2018,10,16,02,22,4.30
2018,10,16,02,23,4.30
2018,10,16,02,24,4.20
2018,10,16,02,25,4.20
2018,10,16,02,26,4.20
2018,10,16,02,27,4.30
2018,10,16,02,28,4.30
2018,10,16,02,29,4.30
2018,10,16,02,30,4.30
2018,10,16,02,31,4.30
2018,10,16,02,32,4.30
2018,10,16,02,33,4.30
2018,10,16,02,34,4.30
2018,10,16,02,35,4.30
2018,10,16,02,36,4.30
2018,10,16,02,37,4.30
2018,10,16,02,38,4.30
2018,10,16,02,39,4.30
2018,10,16,02,40,4.30
2018,10,16,02,41,4.30
2018,10,16,02,42,4.30
2018,10,16,02,43,4.30
2018,10,16,02,44,4.30
2018,10,16,02,45,4.30
2018,10,16,02,46,4.30
2018,10,16,02,47,4.30
2018,10,16,02,48,4.30
2018,10,16,02,49,4.30
2018,10,16,02,50,4.30
2018,10,16,02,51,4.30
2018,10,16,02,52,4.30
2018,10,16,02,53,4.30
2018,10,16,02,54,4.30
2018,10,16,02,55,4.30
2018,10,16,02,56,4.30
2018,10,16,02,57,4.20
2018,10,16,02,58,4.20
2018,10,16,02,59,4.20
2018,10,16,03,00,4.20
2018,10,16,03,01,4.20
2018,10,16,03,02,4.10
2018,10,16,03,03,4.10
2018,10,16,03,04,4.10
2018,10,16,03,05,4.10
2018,10,16,03,06,4.10
2018,10,16,03,07,4.10
2018,10,16,03,08,4.10
2018,10,16,03,09,4.00
2018,10,16,03,10,4.00
2018,10,16,03,11,4.00
2018,10,16,03,12,4.00
2018,10,16,03,13,4.00
2018,10,16,03,14,4.00
2018,10,16,03,15,4.00
2018,10,16,03,16,4.00
2018,10,16,03,17,3.90
2018,10,16,03,18,3.90
2018,10,16,03,19,3.90
2018,10,16,03,20,3.90
2018,10,16,03,21,4.00
2018,10,16,03,22,4.00
2018,10,16,03,23,4.00
2018,10,16,03,24,4.00
2018,10,16,03,25,4.00
2018,10,16,03,26,4.10
2018,10,16,03,27,4.00
2018,10,16,03,28,4.00
2018,10,16,03,29,4.00
2018,10,16,03,30,4.00
2018,10,16,03,31,4.00
2018,10,16,03,32,4.00
2018,10,16,03,33,4.00
2018,10,16,03,34,4.00
2018,10,16,03,35,4.00
2018,10,16,03,36,4.00
2018,10,16,03,37,4.00
2018,10,16,03,38,4.00
2018,10,16,03,39,3.90
2018,10,16,03,40,3.90
2018,10,16,03,41,3.90
2018,10,16,03,42,3.90
2018,10,16,03,43,3.90
2018,10,16,03,44,3.90
2018,10,16,03,45,3.90
2018,10,16,03,46,3.90
2018,10,16,03,47,3.90
2018,10,16,03,48,3.80
2018,10,16,03,49,3.80
2018,10,16,03,50,3.80
2018,10,16,03,51,3.80
2018,10,16,03,52,3.80
2018,10,16,03,53,3.80
2018,10,16,03,54,3.80
2018,10,16,03,55,3.90
2018,10,16,03,56,3.90
2018,10,16,03,57,3.90
2018,10,16,03,58,3.90
2018,10,16,03,59,3.90
2018,10,16,04,00,4.00
2018,10,16,04,01,4.00
2018,10,16,04,02,4.00
2018,10,16,04,03,4.00
2018,10,16,04,04,4.00
2018,10,16,04,05,4.00
2018,10,16,04,06,4.00
2018,10,16,04,07,4.00
2018,10,16,04,08,4.00
2018,10,16,04,09,4.00
2018,10,16,04,10,3.90
2018,10,16,04,11,3.90
2018,10,16,04,12,3.90
2018,10,16,04,13,3.90
2018,10,16,04,14,3.90
2018,10,16,04,15,3.90
2018,10,16,04,16,3.90
2018,10,16,04,17,3.90
2018,10,16,04,18,3.90
2018,10,16,04,19,3.90
2018,10,16,04,20,3.90
2018,10,16,04,21,3.90
2018,10,16,04,22,3.90
2018,10,16,04,23,3.90
2018,10,16,04,24,3.90
2018,10,16,04,25,3.90
2018,10,16,04,26,3.90
2018,10,16,04,27,3.90
2018,10,16,04,28,3.90
2018,10,16,04,29,3.90
2018,10,16,04,30,3.90
2018,10,16,04,31,3.90
2018,10,16,04,32,3.90
2018,10,16,04,33,3.90
2018,10,16,04,34,3.90
2018,10,16,04,35,3.90
2018,10,16,04,36,3.90
2018,10,16,04,37,3.90
2018,10,16,04,38,3.90
2018,10,16,04,39,3.90
2018,10,16,04,40,3.90
2018,10,16,04,41,3.90
2018,10,16,04,42,3.90
2018,10,16,04,43,3.90
2018,10,16,04,44,3.80
2018,10,16,04,45,3.80
2018,10,16,04,46,3.80
2018,10,16,04,47,3.80
2018,10,16,04,48,3.80
2018,10,16,04,49,3.80
2018,10,16,04,50,3.70
2018,10,16,04,51,3.70
2018,10,16,04,52,3.70
2018,10,16,04,53,3.70
2018,10,16,04,54,3.70
2018,10,16,04,55,3.70
2018,10,16,04,56,3.70
2018,10,16,04,57,3.70
2018,10,16,04,58,3.70
2018,10,16,04,59,3.70
2018,10,16,05,00,3.70
2018,10,16,05,01,3.70
2018,10,16,05,02,3.60
2018,10,16,05,03,3.60
2018,10,16,05,04,3.60
2018,10,16,05,05,3.60
2018,10,16,05,06,3.60
2018,10,16,05,07,3.60
2018,10,16,05,08,3.50
2018,10,16,05,09,3.50
2018,10,16,05,10,3.50
2018,10,16,05,11,3.50
2018,10,16,05,12,3.50
2018,10,16,05,13,3.50
2018,10,16,05,14,3.50
2018,10,16,05,15,3.50
2018,10,16,05,16,3.50
2018,10,16,05,17,3.50
2018,10,16,05,18,3.50
2018,10,16,05,19,3.50
2018,10,16,05,20,3.50
2018,10,16,05,21,3.50
2018,10,16,05,22,3.50
2018,10,16,05,23,3.50
2018,10,16,05,24,3.50
2018,10,16,05,25,3.50
2018,10,16,05,26,3.50
2018,10,16,05,27,3.40
2018,10,16,05,28,3.40
2018,10,16,05,29,3.40
2018,10,16,05,30,3.40
2018,10,16,05,31,3.40
2018,10,16,05,32,3.40
2018,10,16,05,33,3.40
2018,10,16,05,34,3.40
2018,10,16,05,35,3.40
2018,10,16,05,36,3.40
2018,10,16,05,37,3.40
2018,10,16,05,38,3.40
2018,10,16,05,39,3.40
2018,10,16,05,40,3.40
2018,10,16,05,41,3.40
2018,10,16,05,42,3.40
2018,10,16,05,43,3.40
2018,10,16,05,44,3.50
2018,10,16,05,45,3.50
2018,10,16,05,46,3.50
2018,10,16,05,47,3.50
2018,10,16,05,48,3.50
2018,10,16,05,49,3.50
2018,10,16,05,50,3.50
2018,10,16,05,51,3.50
2018,10,16,05,52,3.50
2018,10,16,05,53,3.40
2018,10,16,05,54,3.40
2018,10,16,05,55,3.40
2018,10,16,05,56,3.40
2018,10,16,05,57,3.40
2018,10,16,05,58,3.40
2018,10,16,05,59,3.40
2018,10,16,06,00,3.40
2018,10,16,06,01,3.30
2018,10,16,06,02,3.30
2018,10,16,06,03,3.30
2018,10,16,06,04,3.30
2018,10,16,06,05,3.30
2018,10,16,06,06,3.30
2018,10,16,06,07,3.30
2018,10,16,06,08,3.30
2018,10,16,06,09,3.30
2018,10,16,06,10,3.20
2018,10,16,06,11,3.30
2018,10,16,06,12,3.30
2018,10,16,06,13,3.20
2018,10,16,06,14,3.20
2018,10,16,06,15,3.30
2018,10,16,06,16,3.30
2018,10,16,06,17,3.30
2018,10,16,06,18,3.30
2018,10,16,06,19,3.30
2018,10,16,06,20,3.30
2018,10,16,06,21,3.30
2018,10,16,06,22,3.30
2018,10,16,06,23,3.30
2018,10,16,06,24,3.40
2018,10,16,06,25,3.40
2018,10,16,06,26,3.40
2018,10,16,06,27,3.40
2018,10,16,06,28,3.40
2018,10,16,06,29,3.50
2018,10,16,06,30,3.40
2018,10,16,06,31,3.40
2018,10,16,06,32,3.40
2018,10,16,06,33,3.50
2018,10,16,06,34,3.50
2018,10,16,06,35,3.50
2018,10,16,06,36,3.40
2018,10,16,06,37,3.40
2018,10,16,06,38,3.40
2018,10,16,06,39,3.40
2018,10,16,06,40,3.40
2018,10,16,06,41,3.30
2018,10,16,06,42,3.30
2018,10,16,06,43,3.30
2018,10,16,06,44,3.30
2018,10,16,06,45,3.30
2018,10,16,06,46,3.30
2018,10,16,06,47,3.30
2018,10,16,06,48,3.30
2018,10,16,06,49,3.40
2018,10,16,06,50,3.40
2018,10,16,06,51,3.40
2018,10,16,06,52,3.40
2018,10,16,06,53,3.50
2018,10,16,06,54,3.50
2018,10,16,06,55,3.50
2018,10,16,06,56,3.50
2018,10,16,06,57,3.50
2018,10,16,06,58,3.50
2018,10,16,06,59,3.50
2018,10,16,07,00,3.40
2018,10,16,07,01,3.40
2018,10,16,07,02,3.40
2018,10,16,07,03,3.40
2018,10,16,07,04,3.40
2018,10,16,07,05,3.30
2018,10,16,07,06,3.30
2018,10,16,07,07,3.30
2018,10,16,07,08,3.30
2018,10,16,07,09,3.30
2018,10,16,07,10,3.20
2018,10,16,07,11,3.20
2018,10,16,07,12,3.20
2018,10,16,07,13,3.20
2018,10,16,07,14,3.20
2018,10,16,07,15,3.20
2018,10,16,07,16,3.20
2018,10,16,07,17,3.20
2018,10,16,07,18,3.20
2018,10,16,07,19,3.20
2018,10,16,07,20,3.20
2018,10,16,07,21,3.20
2018,10,16,07,22,3.20
2018,10,16,07,23,3.20
2018,10,16,07,24,3.20
2018,10,16,07,25,3.20
2018,10,16,07,26,3.10
2018,10,16,07,27,3.10
2018,10,16,07,28,3.10
2018,10,16,07,29,3.10
2018,10,16,07,30,3.10
2018,10,16,07,31,3.10
2018,10,16,07,32,3.10
2018,10,16,07,33,3.10
2018,10,16,07,34,3.10
2018,10,16,07,35,3.10
2018,10,16,07,36,3.10
2018,10,16,07,37,3.10
2018,10,16,07,38,3.10
2018,10,16,07,39,3.10
2018,10,16,07,40,3.10
2018,10,16,07,41,3.20
2018,10,16,07,42,3.20
2018,10,16,07,43,3.20
2018,10,16,07,44,3.20
2018,10,16,07,45,3.20
2018,10,16,07,46,3.20
2018,10,16,07,47,3.20
2018,10,16,07,48,3.20
2018,10,16,07,49,3.20
2018,10,16,07,50,3.20
2018,10,16,07,51,3.30
2018,10,16,07,52,3.30
2018,10,16,07,53,3.30
2018,10,16,07,54,3.30
2018,10,16,07,55,3.30
2018,10,16,07,56,3.30
2018,10,16,07,57,3.30
2018,10,16,07,58,3.30
2018,10,16,07,59,3.30
2018,10,16,08,00,3.30
2018,10,16,08,01,3.30
2018,10,16,08,02,3.30
2018,10,16,08,03,3.30
2018,10,16,08,04,3.30
2018,10,16,08,05,3.40
2018,10,16,08,06,3.30
2018,10,16,08,07,3.30
2018,10,16,08,08,3.30
2018,10,16,08,09,3.30
2018,10,16,08,10,3.30
2018,10,16,08,11,3.30
2018,10,16,08,12,3.30
2018,10,16,08,13,3.30
2018,10,16,08,14,3.30
2018,10,16,08,15,3.40
2018,10,16,08,16,3.40
2018,10,16,08,17,3.50
2018,10,16,08,18,3.60
2018,10,16,08,19,3.60
2018,10,16,08,20,3.60
2018,10,16,08,21,3.70
2018,10,16,08,22,3.70
2018,10,16,08,23,3.70
2018,10,16,08,24,3.70
2018,10,16,08,25,3.70
2018,10,16,08,26,3.80
2018,10,16,08,27,3.80
2018,10,16,08,28,3.80
2018,10,16,08,29,3.80
2018,10,16,08,30,3.80
2018,10,16,08,31,3.70
2018,10,16,08,32,3.70
2018,10,16,08,33,3.70
2018,10,16,08,34,3.80
2018,10,16,08,35,3.80
2018,10,16,08,36,3.80
2018,10,16,08,37,3.80
2018,10,16,08,38,3.80
2018,10,16,08,39,3.80
2018,10,16,08,40,3.80
2018,10,16,08,41,3.90
2018,10,16,08,42,3.90
2018,10,16,08,43,4.00
2018,10,16,08,44,4.00
2018,10,16,08,45,4.10
2018,10,16,08,46,4.10
2018,10,16,08,47,4.10
2018,10,16,08,48,4.20
2018,10,16,08,49,4.20
2018,10,16,08,50,4.20
2018,10,16,08,51,4.30
2018,10,16,08,52,4.30
2018,10,16,08,53,4.30
2018,10,16,08,54,4.40
2018,10,16,08,55,4.40
2018,10,16,08,56,4.40
2018,10,16,08,57,4.50
2018,10,16,08,58,4.50
2018,10,16,08,59,4.50
2018,10,16,09,00,4.60
2018,10,16,09,01,4.70
2018,10,16,09,02,4.70
2018,10,16,09,03,4.90
2018,10,16,09,04,5.00
2018,10,16,09,05,5.10
2018,10,16,09,06,5.20
2018,10,16,09,07,5.30
2018,10,16,09,08,5.40
2018,10,16,09,09,5.50
2018,10,16,09,10,5.60
2018,10,16,09,11,5.80
2018,10,16,09,12,5.90
2018,10,16,09,13,6.00
2018,10,16,09,14,6.00
2018,10,16,09,15,6.10
2018,10,16,09,16,6.20
2018,10,16,09,17,6.30
2018,10,16,09,18,6.40
2018,10,16,09,19,6.50
2018,10,16,09,20,6.60
2018,10,16,09,21,6.70
2018,10,16,09,22,6.80
2018,10,16,09,23,6.80
2018,10,16,09,24,6.90
2018,10,16,09,25,7.00
2018,10,16,09,26,7.10
2018,10,16,09,27,7.20
2018,10,16,09,28,7.30
2018,10,16,09,29,7.40
2018,10,16,09,30,7.50
2018,10,16,09,31,7.60
2018,10,16,09,32,7.70
2018,10,16,09,33,7.80
2018,10,16,09,34,7.90
2018,10,16,09,35,8.00
2018,10,16,09,36,8.10
2018,10,16,09,37,8.20
2018,10,16,09,38,8.30
2018,10,16,09,39,8.40
2018,10,16,09,40,8.40
2018,10,16,09,41,8.50
2018,10,16,09,42,8.60
2018,10,16,09,43,8.70
2018,10,16,09,44,8.70
2018,10,16,09,45,8.80
2018,10,16,09,46,8.90
2018,10,16,09,47,8.90
2018,10,16,09,48,9.00
2018,10,16,09,49,9.10
2018,10,16,09,50,9.20
2018,10,16,09,51,9.30
2018,10,16,09,52,9.30
2018,10,16,09,53,9.50
2018,10,16,09,54,9.50
2018,10,16,09,55,9.60
2018,10,16,09,56,9.70
2018,10,16,09,57,9.80
2018,10,16,09,58,9.90
2018,10,16,09,59,10.00
2018,10,16,10,00,10.00
2018,10,16,10,01,10.10
2018,10,16,10,02,10.10
2018,10,16,10,03,10.20
2018,10,16,10,04,10.20
2018,10,16,10,05,10.20
2018,10,16,10,06,10.30
2018,10,16,10,07,10.30
2018,10,16,10,08,10.30
2018,10,16,10,09,10.40
2018,10,16,10,10,10.50
2018,10,16,10,11,10.50
2018,10,16,10,12,10.60
2018,10,16,10,13,10.70
2018,10,16,10,14,10.70
2018,10,16,10,15,10.80
2018,10,16,10,16,10.80
2018,10,16,10,17,10.80
2018,10,16,10,18,10.90
2018,10,16,10,19,10.90
2018,10,16,10,20,10.90
2018,10,16,10,21,10.90
2018,10,16,10,22,10.90
2018,10,16,10,23,10.90
2018,10,16,10,24,10.90
2018,10,16,10,25,11.00
2018,10,16,10,26,11.00
2018,10,16,10,27,11.10
2018,10,16,10,28,11.10
2018,10,16,10,29,11.20
2018,10,16,10,30,11.30
2018,10,16,10,31,11.40
2018,10,16,10,32,11.40
2018,10,16,10,33,11.40
2018,10,16,10,34,11.50
2018,10,16,10,35,11.50
2018,10,16,10,36,11.60
2018,10,16,10,37,11.60
2018,10,16,10,38,11.70
2018,10,16,10,39,11.80
2018,10,16,10,40,11.80
2018,10,16,10,41,11.90
2018,10,16,10,42,11.90
2018,10,16,10,43,12.00
2018,10,16,10,44,12.00
2018,10,16,10,45,12.10
2018,10,16,10,46,12.10
2018,10,16,10,47,12.10
2018,10,16,10,48,12.10
2018,10,16,10,49,12.20
2018,10,16,10,50,12.20
2018,10,16,10,51,12.20
2018,10,16,10,52,12.20
2018,10,16,10,53,12.20
2018,10,16,10,54,12.20
2018,10,16,10,55,12.30
2018,10,16,10,56,12.30
2018,10,16,10,57,12.30
2018,10,16,10,58,12.40
2018,10,16,10,59,12.40
2018,10,16,11,00,12.40
2018,10,16,11,01,12.30
2018,10,16,11,02,12.30
2018,10,16,11,03,12.30
2018,10,16,11,04,12.20
2018,10,16,11,05,12.20
2018,10,16,11,06,12.20
2018,10,16,11,07,12.20
2018,10,16,11,08,12.20
2018,10,16,11,09,12.10
2018,10,16,11,10,12.10
2018,10,16,11,11,12.10
2018,10,16,11,12,12.10
2018,10,16,11,13,12.10
2018,10,16,11,14,12.10
2018,10,16,11,15,12.10
2018,10,16,11,16,12.20
2018,10,16,11,17,12.20
2018,10,16,11,18,12.30
2018,10,16,11,19,12.30
2018,10,16,11,20,12.30
2018,10,16,11,21,12.30
2018,10,16,11,22,12.30
2018,10,16,11,23,12.30
2018,10,16,11,24,12.30
2018,10,16,11,25,12.30
2018,10,16,11,26,12.30
2018,10,16,11,27,12.30
2018,10,16,11,28,12.30
2018,10,16,11,29,12.40
2018,10,16,11,30,12.40
2018,10,16,11,31,12.40
2018,10,16,11,32,12.40
2018,10,16,11,33,12.40
2018,10,16,11,34,12.50
2018,10,16,11,35,12.50
2018,10,16,11,36,12.50
2018,10,16,11,37,12.50
2018,10,16,11,38,12.50
2018,10,16,11,39,12.50
2018,10,16,11,40,12.50
2018,10,16,11,41,12.50
2018,10,16,11,42,12.50
2018,10,16,11,43,12.50
2018,10,16,11,44,12.50
2018,10,16,11,45,12.50
2018,10,16,11,46,12.50
2018,10,16,11,47,12.50
2018,10,16,11,48,12.40
2018,10,16,11,49,12.40
2018,10,16,11,50,12.40
2018,10,16,11,51,12.40
2018,10,16,11,52,12.40
2018,10,16,11,53,12.40
2018,10,16,11,54,12.40
2018,10,16,11,55,12.40
2018,10,16,11,56,12.40
2018,10,16,11,57,12.40
2018,10,16,11,58,12.40
2018,10,16,11,59,12.40
2018,10,16,12,00,12.50
2018,10,16,12,01,12.50
2018,10,16,12,02,12.50
2018,10,16,12,03,12.60
2018,10,16,12,04,12.60
2018,10,16,12,05,12.60
2018,10,16,12,06,12.60
2018,10,16,12,07,12.60
2018,10,16,12,08,12.70
2018,10,16,12,09,12.70
2018,10,16,12,10,12.70
2018,10,16,12,11,12.70
2018,10,16,12,12,12.70
2018,10,16,12,13,12.70
2018,10,16,12,14,12.70
2018,10,16,12,15,12.70
2018,10,16,12,16,12.80
2018,10,16,12,17,12.80
2018,10,16,12,18,12.80
2018,10,16,12,19,12.80
2018,10,16,12,20,12.90
2018,10,16,12,21,12.90
2018,10,16,12,22,12.90
2018,10,16,12,23,12.90
2018,10,16,12,24,12.90
2018,10,16,12,25,12.90
2018,10,16,12,26,12.90
2018,10,16,12,27,13.00
2018,10,16,12,28,13.00
2018,10,16,12,29,13.00
2018,10,16,12,30,13.00
2018,10,16,12,31,13.00
2018,10,16,12,32,13.00
2018,10,16,12,33,13.00
2018,10,16,12,34,13.00
2018,10,16,12,35,13.00
2018,10,16,12,36,13.00
2018,10,16,12,37,12.90
2018,10,16,12,38,12.90
2018,10,16,12,39,12.90
2018,10,16,12,40,12.90
2018,10,16,12,41,12.90
2018,10,16,12,42,12.80
2018,10,16,12,43,12.80
2018,10,16,12,44,12.80
2018,10,16,12,45,12.80
2018,10,16,12,46,12.80
2018,10,16,12,47,12.80
2018,10,16,12,48,12.80
2018,10,16,12,49,12.90
2018,10,16,12,50,12.90
2018,10,16,12,51,12.90
2018,10,16,12,52,12.90
2018,10,16,12,53,12.90
2018,10,16,12,54,13.00
2018,10,16,12,55,13.00
2018,10,16,12,56,13.00
2018,10,16,12,57,13.00
2018,10,16,12,58,13.00
2018,10,16,12,59,13.00
2018,10,16,13,00,13.10
2018,10,16,13,01,13.10
2018,10,16,13,02,13.20
2018,10,16,13,03,13.20
2018,10,16,13,04,13.20
2018,10,16,13,05,13.20
2018,10,16,13,06,13.20
2018,10,16,13,07,13.20
2018,10,16,13,08,13.20
2018,10,16,13,09,13.20
2018,10,16,13,10,13.20
2018,10,16,13,11,13.30
2018,10,16,13,12,13.30
2018,10,16,13,13,13.30
2018,10,16,13,14,13.30
2018,10,16,13,15,13.30
2018,10,16,13,16,13.30
2018,10,16,13,17,13.30
2018,10,16,13,18,13.40
2018,10,16,13,19,13.40
2018,10,16,13,20,13.40
2018,10,16,13,21,13.40
2018,10,16,13,22,13.40
2018,10,16,13,23,13.40
2018,10,16,13,24,13.40
2018,10,16,13,25,13.40
2018,10,16,13,26,13.40
2018,10,16,13,27,13.50
2018,10,16,13,28,13.50
2018,10,16,13,29,13.50
2018,10,16,13,30,13.60
2018,10,16,13,31,13.60
2018,10,16,13,32,13.60
2018,10,16,13,33,13.60
2018,10,16,13,34,13.60
2018,10,16,13,35,13.60
2018,10,16,13,36,13.60
2018,10,16,13,37,13.70
2018,10,16,13,38,13.70
2018,10,16,13,39,13.70
2018,10,16,13,40,13.70
2018,10,16,13,41,13.70
2018,10,16,13,42,13.70
2018,10,16,13,43,13.80
2018,10,16,13,44,13.80
2018,10,16,13,45,13.80
2018,10,16,13,46,13.80
2018,10,16,13,47,13.90
2018,10,16,13,48,13.90
2018,10,16,13,49,13.90
2018,10,16,13,50,13.90
2018,10,16,13,51,13.90
2018,10,16,13,52,13.90
2018,10,16,13,53,13.90
2018,10,16,13,54,13.90
2018,10,16,13,55,13.90
2018,10,16,13,56,13.90
2018,10,16,13,57,14.00
2018,10,16,13,58,14.00
2018,10,16,13,59,14.00
2018,10,16,14,00,14.10
2018,10,16,14,01,14.10
2018,10,16,14,02,14.10
2018,10,16,14,03,14.20
2018,10,16,14,04,14.20
2018,10,16,14,05,14.20
2018,10,16,14,06,14.20
2018,10,16,14,07,14.20
2018,10,16,14,08,14.20
2018,10,16,14,09,14.20
2018,10,16,14,10,14.20
2018,10,16,14,11,14.20
2018,10,16,14,12,14.20
2018,10,16,14,13,14.20
2018,10,16,14,14,14.20
2018,10,16,14,15,14.20
2018,10,16,14,16,14.20
2018,10,16,14,17,14.20
2018,10,16,14,18,14.20
2018,10,16,14,19,14.30
2018,10,16,14,20,14.30
2018,10,16,14,21,14.30
2018,10,16,14,22,14.30
2018,10,16,14,23,14.30
2018,10,16,14,24,14.30
2018,10,16,14,25,14.30
2018,10,16,14,26,14.30
2018,10,16,14,27,14.30
2018,10,16,14,28,14.30
2018,10,16,14,29,14.30
2018,10,16,14,30,14.30
2018,10,16,14,31,14.30
2018,10,16,14,32,14.30
2018,10,16,14,33,14.30
2018,10,16,14,34,14.30
2018,10,16,14,35,14.30
2018,10,16,14,36,14.30
2018,10,16,14,37,14.40
2018,10,16,14,38,14.40
2018,10,16,14,39,14.40
2018,10,16,14,40,14.40
2018,10,16,14,41,14.40
2018,10,16,14,42,14.40
2018,10,16,14,43,14.50
2018,10,16,14,44,14.50
2018,10,16,14,45,14.60
2018,10,16,14,46,14.60
2018,10,16,14,47,14.60
2018,10,16,14,48,14.60
2018,10,16,14,49,14.60
2018,10,16,14,50,14.60
2018,10,16,14,51,14.60
2018,10,16,14,52,14.70
2018,10,16,14,53,14.70
2018,10,16,14,54,14.70
2018,10,16,14,55,14.70
2018,10,16,14,56,14.70
2018,10,16,14,57,14.70
2018,10,16,14,58,14.80
2018,10,16,14,59,14.80
2018,10,16,15,00,14.80
2018,10,16,15,01,14.80
2018,10,16,15,02,14.80
2018,10,16,15,03,14.80
2018,10,16,15,04,14.90
2018,10,16,15,05,14.90
2018,10,16,15,06,14.90
2018,10,16,15,07,15.00
2018,10,16,15,08,15.00
2018,10,16,15,09,14.90
2018,10,16,15,10,14.90
2018,10,16,15,11,14.90
2018,10,16,15,12,14.90
2018,10,16,15,13,14.90
2018,10,16,15,14,14.80
2018,10,16,15,15,14.80
2018,10,16,15,16,14.80
2018,10,16,15,17,14.80
2018,10,16,15,18,14.80
2018,10,16,15,19,14.80
2018,10,16,15,20,14.80
2018,10,16,15,21,14.80
2018,10,16,15,22,14.80
2018,10,16,15,23,14.80
2018,10,16,15,24,14.80
2018,10,16,15,25,14.80
2018,10,16,15,26,14.80
2018,10,16,15,27,14.80
2018,10,16,15,28,14.80
2018,10,16,15,29,14.70
2018,10,16,15,30,14.70
2018,10,16,15,31,14.70
2018,10,16,15,32,14.70
2018,10,16,15,33,14.70
2018,10,16,15,34,14.60
2018,10,16,15,35,14.60
2018,10,16,15,36,14.60
2018,10,16,15,37,14.60
2018,10,16,15,38,14.60
2018,10,16,15,39,14.60
2018,10,16,15,40,14.60
2018,10,16,15,41,14.60
2018,10,16,15,42,14.60
2018,10,16,15,43,14.60
2018,10,16,15,44,14.70
2018,10,16,15,45,14.70
2018,10,16,15,46,14.70
2018,10,16,15,47,14.70
2018,10,16,15,48,14.70
2018,10,16,15,49,14.70
2018,10,16,15,50,14.80
2018,10,16,15,51,14.80
2018,10,16,15,52,14.80
2018,10,16,15,53,14.90
2018,10,16,15,54,14.90
2018,10,16,15,55,14.90
2018,10,16,15,56,15.00
2018,10,16,15,57,15.00
2018,10,16,15,58,15.10
2018,10,16,15,59,15.10
2018,10,16,16,00,15.10
2018,10,16,16,01,15.20
2018,10,16,16,02,15.20
2018,10,16,16,03,15.30
2018,10,16,16,04,15.30
2018,10,16,16,05,15.30
2018,10,16,16,06,15.30
2018,10,16,16,07,15.30
2018,10,16,16,08,15.40
2018,10,16,16,09,15.40
2018,10,16,16,10,15.40
2018,10,16,16,11,15.40
2018,10,16,16,12,15.50
2018,10,16,16,13,15.50
2018,10,16,16,14,15.50
2018,10,16,16,15,15.60
2018,10,16,16,16,15.60
2018,10,16,16,17,15.60
2018,10,16,16,18,15.60
2018,10,16,16,19,15.60
2018,10,16,16,20,15.70
2018,10,16,16,21,15.70
2018,10,16,16,22,15.70
2018,10,16,16,23,15.70
2018,10,16,16,24,15.70
2018,10,16,16,25,15.70
2018,10,16,16,26,15.70
2018,10,16,16,27,15.70
2018,10,16,16,28,15.70
2018,10,16,16,29,15.70
2018,10,16,16,30,15.70
2018,10,16,16,31,15.70
2018,10,16,16,32,15.70
2018,10,16,16,33,15.70
2018,10,16,16,34,15.70
2018,10,16,16,35,15.70
2018,10,16,16,36,15.70
2018,10,16,16,37,15.60
2018,10,16,16,38,15.60
2018,10,16,16,39,15.60
2018,10,16,16,40,15.60
2018,10,16,16,41,15.60
2018,10,16,16,42,15.60
2018,10,16,16,43,15.60
2018,10,16,16,44,15.60
2018,10,16,16,45,15.60
2018,10,16,16,46,15.60
2018,10,16,16,47,15.60
2018,10,16,16,48,15.60
2018,10,16,16,49,15.60
2018,10,16,16,50,15.60
2018,10,16,16,51,15.60
2018,10,16,16,52,15.60
2018,10,16,16,53,15.60
2018,10,16,16,54,15.60
2018,10,16,16,55,15.60
2018,10,16,16,56,15.60
2018,10,16,16,57,15.60
2018,10,16,16,58,15.60
2018,10,16,16,59,15.60
2018,10,16,17,00,15.60
2018,10,16,17,01,15.60
2018,10,16,17,02,15.60
2018,10,16,17,03,15.60
2018,10,16,17,04,15.50
2018,10,16,17,05,15.50
2018,10,16,17,06,15.50
2018,10,16,17,07,15.50
2018,10,16,17,08,15.50
2018,10,16,17,09,15.50
2018,10,16,17,10,15.50
2018,10,16,17,11,15.50
2018,10,16,17,12,15.40
2018,10,16,17,13,15.40
2018,10,16,17,14,15.40
2018,10,16,17,15,15.40
2018,10,16,17,16,15.40
2018,10,16,17,17,15.40
2018,10,16,17,18,15.40
2018,10,16,17,19,15.40
2018,10,16,17,20,15.40
2018,10,16,17,21,15.40
2018,10,16,17,22,15.40
2018,10,16,17,23,15.40
2018,10,16,17,24,15.40
2018,10,16,17,25,15.30
2018,10,16,17,26,15.30
2018,10,16,17,27,15.30
2018,10,16,17,28,15.30
2018,10,16,17,29,15.30
2018,10,16,17,30,15.30
2018,10,16,17,31,15.30
2018,10,16,17,32,15.30
2018,10,16,17,33,15.30
2018,10,16,17,34,15.30
2018,10,16,17,35,15.30
2018,10,16,17,36,15.30
2018,10,16,17,37,15.30
2018,10,16,17,38,15.40
2018,10,16,17,39,15.40
2018,10,16,17,40,15.40
2018,10,16,17,41,15.40
2018,10,16,17,42,15.40
2018,10,16,17,43,15.40
2018,10,16,17,44,15.40
2018,10,16,17,45,15.40